Probability
0 0 0 0 0 0 0 0 0 0 0 0 0 0 0 0 0 0 0 0 0 0 0 0 0 0 0 0 0 0 0 0 0 0 0 0 0 0 0 0 0 0 0
0 0 0 0 0 0 0 0 0 0 0 0 0 0 0 0 0 0 0 0 0 0 0 0 0 0 0 0 0 0 0 0 0 0 0 0 0 0 0 0 0 0 0
0 0 0 0 0 0 0 0 0 0 0 0 0 0 0 0 0 0 0 0 0 0 0 0 0 0 0 0 0 0 0 0 0 0 0 0 0 0 0 0 0 0 0
0 0 0 0 0 0 0 0 0 0 0 0 0 0 0 0 0 0 0 0 0 0 0 0 0 0 0 0 0 0 0 0 0 0 0 0 0 0 0 0 0 0 0
0 0 0 0 0 0 0 0 0 0 0 0 0 0 0 0 0 0 0 0 0 0 0 0 0 0 0 0 0 0 0 0 0 0 0 0 0 0 0 0 0 0 0
0 0 0 0 0 0 0 0 0 0 0 0 0 0 0 0 0 0 0 0 0 0 0 0 0 0 0 0 0 0 0 0 0 0 0 0 0 0 0 0 0 0 0
0 0 0 0 0 0 0 0 0 0 0 0 0 0 0 0 0 0 0 0 0 0 0 0 0 0 0 0 0 0 0 0 0 0 0 0 0 0 0 0 0 0 0
0 0 0 0 0 0 0 0 0 0 0 0 0 0 0 0 0 0 0 0 0 0 0 0 0 0 0 0 0 0 0 0 0 0 0 0 0 0 0 0 0 0 0
0 0 0 0 0 0 0 0 0 0 0 0 0 0 0 0 0 0 0 0 0 0 0 0 0 0 0 0 0 0 0 0 0 0 0 0 0 0 0 0 0 0 0
0 0 0 0 0 0 0 0 0 0 0 0 0 0 0 0 0 0 0 0 0 0 0 0 0 0 0 0 0 0 0 0 0 0 0 0 0 0 0 0 0 0 0
0 0 0 0 0 0 0 0 0 0 0 0 0 0 0 0 0 0 0 0 0 0 0 0 0 0 0 0 0 0 0 0 0 0 0 0 0 0 0 0 0 0 0
0 0 0 0 0 0 0 0 0 0 0 0 0 0 0 0 0 0 0 0 0 0 0 0 0 0 0 0 0 0 0 0 0 0 0 0 0 0 0 0 0 0 0
0 0 0 0 0 0 0 0 0 0 0 0 0 0 0 0 0 0 0 0 0 0 0 0 0 0 0 0 0 0 0 0 0 0 0 0 0 0 0 0 0 0 0
0 0 0 0 0 0 0 0 0 0 0 0 0 0 0 0 0 0 0 0 0 0 0 0 0 0 0 0 0 0 0 0 0 0 0 0 0 0 0 0 0 0 0
0 0 0 0 0 0 0 0 0 0 0 0 0 0 0 0 0 0 0 0 0 0 0 0 0 0 0 0 0 0 0 0 0 0 0 0 0 0 0 0 0 0 0
0 0 0 0 0 0 0 0 0 0 0 0 0 0 0 0 0 0 0 0 0 0 0 0 0 0 0 0 0 0 0 0 0 0 0 0 0 0 0 0 0 0 0
0 0 0 0 0 0 0 0 0 0 0 0 0 0 0 0 0 0 0 0 0 0 0 0 0 0 0 0 0 0 0 0 0 0 0 0 0 0 0 0 0 0 0
0 0 0 0 0 0 0 0 0 0 0 0 0 0 0 0 0 0 0 0 0 0 0 0 0 0 0 0 0 0 0 0 0 0 0 0 0 0 0 0 0 0 0
0 0 0 0 0 0 0 0 0 0 0 0 0 0 0 0 0 0 0 0 0 0 0 0 0 0 0 0 0 0 0 0 0 0 0 0 0 0 0 0 0 0 0
0 0 0 0 0 0 0 0 0 0 0 0 0 0 0 0 0 0 0 0 0 0 0 0 0 0 0 0 0 0 0 0 0 0 0 0 0 0 0 0 0 0 0
0 0 0 0 0 0 0 0 0 0 0 0 0 0 0 0 0 0 0 0 0 0 0 0 0 0 0 0 0 0 0 0 0 0 0 0 0 0 0 0 0 0 0
0 0 0 0 0 0 0 0 0 0 0 0 0 0 0 0 0 0 0 0 0 0 0 0 0 0 0 0 0 0 0 0 0 0 0 0 0 0 0 0 0 0 0
0 0 0 0 0 0 0 0 0 0 0 0 0 0 0 0 0 0 0 0 0 0 0 0 0 0 0 0 0 0 0 0 0 0 0 0 0 0 0 0 0 0 0
0 0 0 0 0 0 0 0 0 0 0 0 0 0 0 0 0 0 0 0 0 0 0 0 0 0 0 0 0 0 0 0 0 0 0 0 0 0 0 0 0 0 0
0 0 0 0 0 0 0 0 0 0 0 0 0 0 0 0 0 0 0 0 0 0 0 0 0 0 0 0 0 0 0 0 0 0 0 0 0 0 0 0 0 0 0
0 0 0 0 0 0 0 0 0 0 0 0 0 0 0 0 0 0 0 0 0 0 0 0 0 0 0 0 0 0 0 0 0 0 0 0 0 0 0 0 0 0 0
Wind_Speed
4 5 10 11 12 13 13 14 14 14 15 16 16 17 18 18 18 18 18 18 19 19 19 19 19 19 20 20 20 20 20 20 20 20 20 20 20 20 20 19 17 12 20
7 6 10 10 12 13 13 14 14 14 15 16 16 17 17 18 18 18 18 18 18 18 18 18 19 19 18 18 18 19 19 19 19 19 18 17 19 19 19 19 18 13 20
9 7 9 11 12 13 13 13 13 14 15 15 16 16 17 17 18 18 17 17 18 18 18 18 18 18 17 17 18 19 19 18 18 17 15 8 11 19 19 19 19 19 19
10 8 9 11 12 13 13 13 13 14 15 15 16 16 17 17 17 17 17 17 17 17 17 17 17 17 17 17 18 18 18 18 17 15 8 6 8 17 18 18 18 18 18
9 7 9 11 13 14 14 14 13 14 15 15 16 16 16 17 17 17 16 16 16 16 16 16 16 16 16 17 18 18 18 17 16 11 6 6 6 16 17 17 17 17 16
8 7 9 12 13 14 14 14 14 14 15 15 15 16 16 16 16 16 16 16 15 15 15 15 15 15 16 16 17 18 17 16 11 6 6 5 5 14 16 16 15 15 15
8 6 8 11 12 13 13 14 14 14 14 15 15 15 15 15 15 15 15 15 15 15 14 14 14 14 15 15 16 16 16 14 7 5 5 4 7 14 15 14 14 14 14
9 7 7 10 11 11 12 12 13 13 14 14 14 14 15 15 14 15 15 14 14 14 13 13 13 13 13 14 14 14 12 10 8 6 5 4 10 13 13 13 13 13 12
9 8 6 6 8 10 11 11 11 12 12 12 13 13 12 12 13 13 13 13 13 13 12 12 11 11 12 12 13 12 11 10 5 4 4 3 8 11 11 11 11 11 10
8 8 7 6 6 6 7 10 11 11 11 11 12 11 11 11 11 10 10 11 12 12 11 11 10 9 10 10 11 11 10 8 5 4 3 3 8 9 9 9 9 9 9
9 8 8 7 7 6 6 9 9 10 10 10 9 11 9 5 6 6 7 10 10 10 10 9 8 7 6 7 8 9 7 3 3 2 2 4 6 8 8 7 7 7 7
12 10 8 8 8 7 6 6 5 5 6 5 5 6 4 4 4 5 8 8 8 7 7 7 5 4 4 3 4 5 2 3 2 1 1 4 5 6 6 6 6 7 7
12 11 10 9 9 8 6 5 3 3 4 5 6 5 4 4 3 3 3 3 3 4 2 3 2 1 1 1 2 2 2 2 1 1 1 2 3 4 4 5 5 6 7
12 12 11 11 10 9 7 6 5 4 4 4 5 6 5 4 3 3 2 3 2 1 2 1 1 1 1 1 2 3 3 2 1 1 0 1 1 2 3 4 5 6 6
11 12 13 12 12 10 8 6 7 6 6 6 5 6 6 5 5 4 3 3 3 2 3 2 2 2 2 2 2 2 2 2 2 1 0 0 0 1 2 4 4 5 6
13 13 12 13 13 11 9 8 7 7 6 6 6 7 8 6 6 5 5 4 4 4 3 4 4 3 2 2 2 2 2 2 2 2 1 0 1 1 2 3 4 4 5
15 13 13 13 13 13 11 10 8 7 7 7 7 8 8 8 7 6 5 5 5 4 5 3 3 2 2 2 2 2 2 2 2 3 2 1 1 1 2 3 3 4 5
12 13 14 12 13 13 11 10 7 7 8 7 7 7 9 9 9 7 6 6 5 4 4 4 3 3 2 2 2 2 2 2 3 3 2 2 1 1 2 4 4 4 5
16 15 15 14 15 14 12 9 8 7 8 7 7 7 9 9 9 7 6 6 6 5 4 4 3 3 3 3 2 2 2 2 2 3 3 3 2 2 2 4 6 5 5
15 15 16 15 14 12 9 7 5 6 7 7 7 8 10 9 10 8 6 7 6 5 5 4 4 3 3 3 2 1 2 2 2 3 4 3 3 3 3 3 3 4 6
14 16 17 17 15 12 10 10 10 10 8 8 8 10 11 10 10 9 7 7 7 7 7 7 4 4 3 3 2 0 1 1 1 2 3 3 4 3 4 4 3 2 2
18 18 18 19 17 15 13 12 8 7 6 7 6 8 11 11 11 10 10 9 9 7 7 7 5 4 3 4 4 2 1 1 1 2 2 3 4 4 4 4 4 3 2
19 20 19 20 19 18 14 7 5 4 3 5 8 10 11 12 12 12 12 10 10 10 9 10 9 8 6 5 4 5 4 5 2 1 2 3 4 4 4 4 5 4 3
21 19 19 19 19 18 16 12 13 13 14 14 11 10 10 12 13 13 12 12 11 10 10 10 10 8 7 6 4 4 3 4 4 3 1 2 3 4 5 5 5 4 4
19 18 18 18 18 18 17 18 17 15 13 8 7 9 11 11 13 14 13 13 12 11 12 10 11 10 9 8 6 4 4 2 2 3 3 3 2 3 4 5 5 4 4
15 15 15 17 18 18 19 18 19 19 15 10 11 12 11 10 11 14 14 14 13 12 13 13 12 13 11 10 8 6 5 5 5 5 4 4 4 3 3 4 5 5 4
Wind_Direction
138 144 129 124 117 112 110 108 106 105 102 101 100 99 97 95 93 91 89 88 87 86 85 84 84 83 82 81 79 78 77 74 73 72 71 72 72 72 71 69 65 61 66
144 138 127 125 120 115 113 111 109 108 105 104 103 102 101 99 97 94 92 91 90 89 89 87 86 84 82 82 82 83 82 78 75 73 71 71 73 72 71 70 69 68 67
133 130 125 123 122 119 115 114 112 112 109 108 107 106 105 102 100 98 96 94 93 92 91 90 89 86 83 82 86 87 85 81 78 75 69 56 69 73 72 70 69 68 67
132 131 129 126 125 123 119 116 115 114 112 110 109 108 106 104 103 101 99 97 95 95 94 93 91 87 84 84 88 89 87 83 80 75 58 52 67 75 73 71 68 67 67
128 128 132 129 129 127 122 118 116 115 114 112 110 109 108 106 106 104 102 99 98 97 97 95 92 88 86 87 90 92 90 86 80 68 53 53 64 77 75 72 70 67 66
127 130 136 132 133 131 126 123 120 119 116 113 111 110 110 108 108 108 105 102 101 100 99 98 95 89 87 88 92 95 93 89 76 57 51 51 65 78 77 75 73 70 68
131 132 137 134 133 133 131 127 124 122 121 118 116 114 114 113 113 112 110 107 105 104 102 101 98 92 87 88 93 98 98 92 78 61 53 53 74 79 77 75 73 70 68
138 135 135 135 134 134 132 130 128 126 125 123 121 120 119 118 118 117 114 112 110 108 106 104 102 95 90 89 95 100 98 92 82 68 55 53 79 80 77 74 72 70 67
139 136 133 135 134 133 131 129 128 126 126 125 124 121 117 115 116 117 117 117 115 112 110 108 105 99 91 88 94 97 96 92 78 60 54 51 76 78 76 73 70 69 67
144 146 144 138 133 131 131 131 128 127 126 124 121 116 113 111 110 110 114 120 120 118 116 113 108 99 87 84 92 98 101 91 79 64 43 59 73 76 75 73 70 70 68
158 160 155 149 144 140 139 140 134 131 131 128 126 124 114 108 105 105 115 121 124 124 123 119 111 93 71 66 85 101 100 97 92 73 43 63 76 76 76 75 70 69 66
173 173 168 161 157 153 151 143 139 139 139 137 138 133 125 124 121 118 120 124 127 129 127 123 112 81 59 48 67 88 100 115 100 89 61 69 76 76 73 72 73 70 67
174 175 176 171 166 163 154 157 154 149 151 152 154 149 139 130 123 116 116 118 121 123 107 111 87 55 72 89 89 103 122 118 118 108 63 80 80 81 76 73 72 71 70
176 181 179 175 172 171 164 167 166 165 169 170 172 162 150 146 149 152 153 158 160 155 155 150 158 167 143 134 124 122 129 136 144 140 211 114 90 92 84 76 76 74 73
183 184 182 179 178 176 171 175 176 178 182 181 176 173 166 163 168 170 174 179 185 181 178 179 181 176 168 160 147 139 143 153 162 161 165 164 143 107 94 81 74 74 74
190 188 183 183 181 178 179 181 181 184 184 184 184 182 177 172 173 175 180 186 193 191 188 186 188 183 186 182 184 178 174 170 170 165 167 126 68 90 102 87 75 77 79
195 190 187 185 182 182 184 185 183 185 183 187 190 187 184 180 178 179 183 190 196 191 186 183 189 180 187 195 209 211 197 192 182 175 168 157 89 63 103 100 90 90 88
194 193 193 189 186 187 187 187 185 186 186 189 190 190 190 187 183 181 186 194 192 184 181 180 179 179 193 197 209 222 214 204 194 184 170 159 139 91 83 93 92 96 94
198 195 194 193 191 192 190 188 186 185 191 192 190 192 195 192 188 185 190 192 184 183 185 184 182 176 186 201 210 225 226 212 202 182 173 165 153 132 109 91 79 76 90
200 197 197 196 195 192 187 184 186 192 196 194 195 197 195 195 192 189 191 191 183 184 191 189 186 184 185 186 189 239 253 231 195 185 178 164 155 146 134 116 86 70 79
199 197 197 197 196 190 190 194 196 203 202 201 202 200 198 197 194 192 193 193 191 196 198 192 179 187 199 162 135 292 326 290 203 195 174 165 163 157 144 135 118 93 69
202 200 199 199 197 195 198 199 200 198 202 207 205 204 202 201 198 198 197 197 197 199 200 195 183 179 193 174 159 152 225 293 263 207 181 174 168 156 154 148 134 122 100
205 203 201 200 199 198 195 184 176 179 190 201 209 212 209 204 202 202 202 199 199 200 205 203 195 188 196 198 186 167 176 209 214 213 198 183 172 166 163 153 148 141 130
208 204 203 201 200 198 192 188 189 199 208 211 209 210 207 206 207 206 205 204 204 205 207 205 202 200 189 196 210 216 196 165 168 190 209 200 182 179 175 165 157 154 149
207 203 203 201 201 197 195 197 199 208 215 211 202 205 208 209 211 210 209 208 209 210 211 206 202 204 204 201 194 186 198 201 179 168 196 197 197 199 184 170 164 165 163
207 203 200 200 203 199 198 200 203 210 211 204 205 209 211 211 212 213 212 213 213 213 212 211 208 209 211 210 204 193 179 179 190 185 188 187 196 191 181 178 176 176 173